Time,TemperatureF,DewpointF,PressureIn,WindDirection,WindDirectionDegrees,WindSpeedMPH,WindSpeedGustMPH,Humidity,HourlyPrecipIn,Conditions,Clouds,dailyrainin,SoftwareType,DateUTC
2014-01-02 09:00:00,20.0,-99.9,30.19,NE,40,29.0,-999.0,-999,-99.99,,,-99.99,,2014-01-02 15:00:00,
2014-01-02 09:44:00,20.0,-99.9,30.19,NE,40,29.0,-999.0,-999,-99.99,,,-99.99,,2014-01-02 15:44:00,
2014-01-02 09:54:00,20.0,-99.9,30.19,NE,40,29.0,-999.0,-999,-99.99,,,-99.99,,2014-01-02 15:54:00,
2014-01-02 10:00:00,19.0,-99.9,30.20,NE,40,29.0,-999.0,-999,-99.99,,,-99.99,,2014-01-02 16:00:00,
2014-01-02 10:43:00,19.0,-99.9,30.20,NE,40,29.0,-999.0,-999,-99.99,,,-99.99,,2014-01-02 16:43:00,
2014-01-02 10:53:00,19.0,-99.9,30.20,NE,40,29.0,-999.0,-999,-99.99,,,-99.99,,2014-01-02 16:53:00,
2014-01-02 12:00:00,20.0,-99.9,30.20,NNE,30,17.0,-999.0,-999,-99.99,,,-99.99,,2014-01-02 18:00:00,
2014-01-02 12:43:00,20.0,-99.9,30.20,NNE,30,17.0,-999.0,-999,-99.99,,,-99.99,,2014-01-02 18:43:00,
2014-01-02 12:53:00,20.0,-99.9,30.20,NNE,30,17.0,-999.0,-999,-99.99,,,-99.99,,2014-01-02 18:53:00,
2014-01-02 13:00:00,20.0,-99.9,30.19,NE,40,15.0,-999.0,-999,-99.99,,,-99.99,,2014-01-02 19:00:00,
2014-01-02 13:42:00,20.0,-99.9,30.19,NE,40,15.0,-999.0,-999,-99.99,,,-99.99,,2014-01-02 19:42:00,
2014-01-02 13:52:00,20.0,-99.9,30.19,NE,40,15.0,-999.0,-999,-99.99,,,-99.99,,2014-01-02 19:52:00,
2014-01-02 14:00:00,20.0,-99.9,30.20,NNE,30,15.0,-999.0,-999,-99.99,,,-99.99,,2014-01-02 20:00:00,
2014-01-02 14:52:00,20.0,-99.9,30.20,NNE,30,15.0,-999.0,-999,-99.99,,,-99.99,,2014-01-02 20:52:00,
2014-01-02 15:00:00,19.0,-99.9,30.23,NNE,20,18.0,-999.0,-999,-99.99,,,-99.99,,2014-01-02 21:00:00,
2014-01-02 15:44:00,19.0,-99.9,30.23,NNE,20,18.0,-999.0,-999,-99.99,,,-99.99,,2014-01-02 21:44:00,
2014-01-02 15:53:00,19.0,-99.9,30.23,NNE,20,18.0,-999.0,-999,-99.99,,,-99.99,,2014-01-02 21:53:00,
2014-01-02 16:00:00,20.0,-99.9,30.26,NE,40,16.0,-999.0,-999,-99.99,,,-99.99,,2014-01-02 22:00:00,
2014-01-02 16:43:00,20.0,-99.9,30.26,NE,40,16.0,-999.0,-999,-99.99,,,-99.99,,2014-01-02 22:43:00,
2014-01-02 16:53:00,20.0,-99.9,30.26,NE,40,16.0,-999.0,-999,-99.99,,,-99.99,,2014-01-02 22:53:00,
2014-01-02 17:00:00,19.0,-99.9,30.30,NNW,340,7.0,-999.0,-999,-99.99,,,-99.99,,2014-01-02 23:00:00,
2014-01-02 17:43:00,19.0,-99.9,30.30,NNW,340,7.0,-999.0,-999,-99.99,,,-99.99,,2014-01-02 23:43:00,
2014-01-02 17:53:00,19.0,-99.9,30.30,NNW,340,7.0,-999.0,-999,-99.99,,,-99.99,,2014-01-02 23:53:00,
2014-01-02 23:00:00,9.0,-99.9,30.37,WNW,300,8.0,-999.0,-999,-99.99,,,-99.99,,2014-01-03 05:00:00,
2014-01-02 23:43:00,9.0,-99.9,30.37,WNW,300,8.0,-999.0,-999,-99.99,,,-99.99,,2014-01-03 05:43:00,
2014-01-02 23:53:00,9.0,-99.9,30.37,WNW,300,8.0,-999.0,-999,-99.99,,,-99.99,,2014-01-03 05:53:00,